TimeCST,TemperatureF,Dew PointF,Humidity,Sea Level PressureIn,VisibilityMPH,Wind Direction,Wind SpeedMPH,Gust SpeedMPH,PrecipitationIn,Events,Conditions,WindDirDegrees,DateUTC
6:00 AM,75,73,93,29.87,12,ENE,3.5,,,,Overcast,70,2012-10-21 12:00:00
6:00 AM,75.2,73.4,94,29.86,6.2,ENE,3.5,-,N/A,Fog,Mostly Cloudy,70,2012-10-21 12:00:00
7:00 AM,77.0,73.4,89,29.88,6.2,ENE,3.5,-,N/A,Fog,Mostly Cloudy,70,2012-10-21 13:00:00
8:00 AM,77.0,73.4,89,29.90,6.2,South,3.5,-,N/A,Rain,Rain,190,2012-10-21 14:00:00
8:30 AM,77.0,75.2,94,29.91,3.1,WSW,5.8,-,N/A,,Drizzle,240,2012-10-21 14:30:00
9:00 AM,78,74,83,29.93,4,West,3.5,,,,Overcast,270,2012-10-21 15:00:00
9:00 AM,77.0,73.4,89,29.91,3.7,West,3.5,-,N/A,,Drizzle,270,2012-10-21 15:00:00
10:00 AM,82.4,75.2,79,29.89,6.2,NW,4.6,-,N/A,,Mostly Cloudy,310,2012-10-21 16:00:00
11:00 AM,82.4,75.2,79,29.87,6.2,West,6.9,-,N/A,,Mostly Cloudy,270,2012-10-21 17:00:00
12:00 PM,83,74,67,29.86,12,West,10.4,,,,Overcast,280,2012-10-21 18:00:00
12:00 PM,84.2,73.4,70,29.84,6.2,West,10.4,-,N/A,,Mostly Cloudy,280,2012-10-21 18:00:00
1:00 PM,84.2,73.4,70,29.81,6.2,West,9.2,-,N/A,,Mostly Cloudy,270,2012-10-21 19:00:00
2:00 PM,84.2,73.4,70,29.78,6.2,West,11.5,-,N/A,,Mostly Cloudy,270,2012-10-21 20:00:00
3:00 PM,83,73,65,29.78,12,WSW,10.4,,,,Overcast,250,2012-10-21 21:00:00
3:00 PM,82.4,73.4,74,29.76,6.2,WSW,10.4,-,N/A,,Mostly Cloudy,250,2012-10-21 21:00:00
4:00 PM,82.4,73.4,74,29.76,6.2,West,11.5,-,N/A,,Mostly Cloudy,270,2012-10-21 22:00:00
5:00 PM,80.6,73.4,79,29.78,6.2,West,8.1,-,N/A,,Mostly Cloudy,260,2012-10-21 23:00:00
6:00 PM,77,74,87,29.81,12,WSW,4.6,,,,Overcast,240,2012-10-22 00:00:00
6:00 PM,77.0,73.4,89,29.79,6.2,WSW,4.6,-,N/A,,Mostly Cloudy,240,2012-10-22 00:00:00
7:00 PM,77.0,73.4,89,29.81,6.2,WSW,3.5,-,N/A,,Mostly Cloudy,250,2012-10-22 01:00:00
8:00 PM,77.0,73.4,89,29.82,6.2,ENE,3.5,-,N/A,,Mostly Cloudy,70,2012-10-22 02:00:00